Regional Weather Roundup
Issued by NWS

Home | Current Version | Previous Version | Text Only | Print | Product List | Glossary Off
Versions: 1 2 3 4 5 6 7 8 9 10 11 12 13 14 15 16 17 18 19 20 21 22 23 24 25 26 27 28 29 30 31 32 33 34 35 36 37 38 39 40 41 42 43 44 45 46 47 48 49 50

000
ASUS43 KBIS 271810
RWRND

NORTH DAKOTA REGIONAL WEATHER ROUNDUP
NATIONAL WEATHER SERVICE BISMARCK ND
100 PM CDT WED JUL 27 2016

NOTE: "FAIR" INDICATES FEW OR NO CLOUDS BELOW 12,000 FEET WITH NO
SIGNIFICANT WEATHER AND/OR OBSTRUCTIONS TO VISIBILITY.


NDZ001>003-009>011-017-271900-
NORTHWEST NORTH DAKOTA

CITY           SKY/WX    TMP DP  RH WIND       PRES   REMARKS
WILLISTON      CLOUDY    73  59  61 CALM      30.14R
6HR MIN TEMP:  61; 6HR MAX TEMP:  75; 6HR PCP: TRACE;

MINOT          PTSUNNY   75  58  55 NE10      30.13F
MINOT AFB      MOSUNNY   73  57  58 E12       30.13F
$$

NDZ018>021-031>035-040>046-271900-
SOUTHWEST NORTH DAKOTA

CITY           SKY/WX    TMP DP  RH WIND       PRES   REMARKS
BISMARCK       MOSUNNY   76  63  64 E8        30.12S
6HR MIN TEMP:  59; 6HR MAX TEMP:  77;

DICKINSON      CLOUDY    70  60  70 E6        30.15R
GARRISON         N/A     75  61  61 E10       30.13S
6HR MIN TEMP:  60; 6HR MAX TEMP:  75;

HETTINGER ARPT CLOUDY    73  61  65 E8        30.16R
$$

NDZ004>008-012>016-024-026-027-054-271900-
NORTHEAST NORTH DAKOTA

CITY           SKY/WX    TMP DP  RH WIND       PRES   REMARKS
GRAND FORKS    MOSUNNY   75  61  61 N13       30.07R
GRND FRKS AFB  SUNNY     74  59  59 N15       30.08R
DEVILS LAKE    CLOUDY    70  57  63 N12       30.15R
$$

NDZ022-023-025-028>030-036>039-047>053-271900-
SOUTHEAST NORTH DAKOTA

CITY           SKY/WX    TMP DP  RH WIND       PRES   REMARKS
FARGO          SUNNY     77  59  53 N15       30.04R
6HR MIN TEMP:  65; 6HR MAX TEMP:  77;

JAMESTOWN      SUNNY     75  60  59 N8        30.12R
$$





USA.gov is the U.S. government's official web portal to all federal, state and local government web resources and services.